Weather History for Monroe, MI

Change the Weather History Date:

Sunday, October 9, 2011

  Actual Average Record
Temperature  
Mean Temperature 62 °F -  
Max Temperature 77 °F 65 °F 92 °F (1939)
Min Temperature 48 °F 45 °F 30 °F (1989)
Degree Days  
Heating Degree Days 2    
Growing Degree Days 12 (Base 50)    
Moisture  
Dew Point 54 °F    
Average Humidity 77    
Maximum Humidity 100    
Minimum Humidity 34    
Precipitation  
Precipitation 0.00 in - - ()
Sea Level Pressure  
Sea Level Pressure 30.37 in    
Wind  
Wind Speed 1 mph (SE)    
Max Wind Speed 8 mph    
Max Gust Speed -    
Visibility 4 miles    
Events Fog    
Averages and records for this station are not official NWS values.
T = Trace of Precipitation, MM = Missing Value Source: NWS Daily Summary

Daily Weather History Graph

Daily Weather History Graph

Search for Another Location

Airport:

Trip Planner

Search our weather history database for the weather conditions in past years. The results will help you decide how hot, cold, wet, or windy it might be!

Date:

Astronomy

Oct. 09, 2011 Rise Set
Actual Time 7:39 AM EDT 7:02 PM EDT
Civil Twilight 7:11 AM EDT 7:30 PM EDT
Nautical Twilight 6:38 AM EDT 8:02 PM EDT
Astronomical Twilight 6:06 AM EDT 8:34 PM EDT
Moon 5:39 PM EDT (10/9) 5:21 AM EDT (10/9)
Length of Visible Light 12h 19m
Length of Day
11h 23m
Waxing Gibbous, 95% of the Moon is Illuminated
Oct 9
Waxing Gibbous
Oct 11
Full
Oct 19
Last Quarter
Oct 26
New
Nov 2
First Quarter

Hourly Weather History & Observations

Time (EDT) Temp. Dew Point Humidity Pressure Visibility Wind Dir Wind Speed Gust Speed Precip Events Conditions
12:12 AM 60.8 °F 60.8 °F 100% 30.35 in 4.0 mi Calm Calm - N/A   Clear
12:32 AM 57.2 °F 57.2 °F 100% 30.35 in 0.5 mi Calm Calm - N/A Fog Fog
12:52 AM 59.0 °F 59.0 °F 100% 30.35 in 4.0 mi Calm Calm - N/A   Clear
1:12 AM 60.8 °F 60.8 °F 100% 30.35 in 7.0 mi Calm Calm - N/A   Clear
1:32 AM 59.0 °F 59.0 °F 100% 30.35 in 7.0 mi Calm Calm - N/A   Clear
1:52 AM 55.4 °F 55.4 °F 100% 30.36 in 1.5 mi Calm Calm - N/A   Mist
2:13 AM 55.4 °F 55.4 °F 100% 30.36 in 5.0 mi Calm Calm - N/A   Clear
2:33 AM 55.4 °F 55.4 °F 100% 30.36 in 7.0 mi Calm Calm - N/A   Clear
2:53 AM 55.4 °F 55.4 °F 100% 30.36 in 7.0 mi Calm Calm - N/A   Clear
3:13 AM 53.6 °F 53.6 °F 100% 30.36 in 4.0 mi Calm Calm - N/A   Clear
3:33 AM 55.4 °F 55.4 °F 100% 30.36 in 7.0 mi Calm Calm - N/A   Clear
3:53 AM 53.6 °F 53.6 °F 100% 30.36 in 7.0 mi Calm Calm - N/A   Clear
4:13 AM 53.6 °F 53.6 °F 100% 30.36 in 5.0 mi Calm Calm - N/A   Clear
4:33 AM 53.6 °F 53.6 °F 100% 30.37 in 5.0 mi Calm Calm - N/A   Clear
4:53 AM 51.8 °F 51.8 °F 100% 30.37 in 1.8 mi Calm Calm - N/A   Mist
5:13 AM 51.8 °F 51.8 °F 100% 30.37 in 0.5 mi Calm Calm - N/A Fog Fog
5:34 AM 50.0 °F 50.0 °F 100% 30.38 in 1.2 mi Calm Calm - N/A   Mostly Cloudy
5:54 AM 50.0 °F 50.0 °F 100% 30.38 in 0.8 mi Calm Calm - N/A   Mostly Cloudy
6:14 AM 48.2 °F 48.2 °F 100% 30.39 in 0.2 mi Calm Calm - N/A Fog Fog
6:34 AM 48.2 °F 48.2 °F 100% 30.39 in 0.2 mi Calm Calm - N/A Fog Fog
7:34 AM 48.2 °F 48.2 °F 100% 30.40 in 0.2 mi Calm Calm - N/A Fog Fog
7:54 AM 48.2 °F 48.2 °F 100% 30.40 in 0.8 mi Calm Calm - N/A   Overcast
8:14 AM 50.0 °F 50.0 °F 100% 30.41 in 0.2 mi Calm Calm - N/A Fog Fog
8:34 AM 51.8 °F 51.8 °F 100% 30.41 in 2.0 mi Calm Calm - N/A   Mostly Cloudy
8:55 AM 55.4 °F 55.4 °F 100% 30.41 in 5.0 mi Calm Calm - N/A   Clear
9:15 AM 57.2 °F 57.2 °F 100% 30.41 in 5.0 mi Calm Calm - N/A   Clear
9:35 AM 62.6 °F 62.6 °F 100% 30.41 in 5.0 mi Calm Calm - N/A   Clear
9:55 AM 66.2 °F 59.0 °F 78% 30.41 in 3.0 mi South 4.6 mph - N/A   Haze
10:15 AM 66.2 °F 57.2 °F 73% 30.41 in 3.0 mi Calm Calm - N/A   Haze
10:35 AM 68.0 °F 55.4 °F 64% 30.40 in 4.0 mi Calm Calm - N/A   Haze
10:50 AM 69.8 °F 55.4 °F 60% 30.40 in 5.0 mi Calm Calm - N/A   Haze
11:10 AM 71.6 °F 55.4 °F 57% 30.40 in 5.0 mi Calm Calm - N/A   Haze
11:31 AM 71.6 °F 55.4 °F 57% 30.39 in 3.0 mi Calm Calm - N/A   Haze
11:51 AM 73.4 °F 55.4 °F 53% 30.39 in 4.0 mi Calm Calm - N/A   Haze
12:11 PM 73.4 °F 57.2 °F 57% 30.39 in 3.0 mi SSE 4.6 mph - N/A   Haze
12:31 PM 73.4 °F 57.2 °F 57% 30.39 in 2.5 mi SSE 3.5 mph - N/A   Haze
12:51 PM 73.4 °F 57.2 °F 57% 30.39 in 3.0 mi SE 4.6 mph - N/A   Haze
1:11 PM 75.2 °F 57.2 °F 53% 30.38 in 1.2 mi SSE 4.6 mph - N/A   Haze
1:31 PM 75.2 °F 53.6 °F 47% 30.37 in 1.2 mi SSE 4.6 mph - N/A   Haze
1:51 PM 75.2 °F 53.6 °F 47% 30.37 in 2.0 mi SSE 5.8 mph - N/A   Haze
2:12 PM 77.0 °F 53.6 °F 44% 30.36 in 10.0 mi South 5.8 mph - N/A   Clear
2:32 PM 77.0 °F 51.8 °F 41% 30.36 in 1.2 mi SE 5.8 mph - N/A   Haze
2:52 PM 77.0 °F 51.8 °F 41% 30.35 in 10.0 mi SE 5.8 mph - N/A   Clear
3:12 PM 77.0 °F 51.8 °F 41% 30.34 in 10.0 mi East 4.6 mph - N/A   Clear
3:32 PM 75.2 °F 48.2 °F 38% 30.34 in 10.0 mi SE 6.9 mph - N/A   Clear
3:52 PM 77.0 °F 46.4 °F 34% 30.33 in 10.0 mi East 4.6 mph - N/A   Clear
4:12 PM 75.2 °F 46.4 °F 36% 30.33 in 10.0 mi East 5.8 mph - N/A   Clear
4:32 PM 75.2 °F 50.0 °F 41% 30.32 in 10.0 mi ESE 4.6 mph - N/A   Clear
4:53 PM 75.2 °F 48.2 °F 38% 30.32 in 10.0 mi ESE 8.1 mph - N/A   Clear
5:13 PM 73.4 °F 48.2 °F 41% 30.32 in 10.0 mi ESE 4.6 mph - N/A   Clear
5:33 PM 71.6 °F 50.0 °F 46% 30.32 in 10.0 mi ESE 5.8 mph - N/A   Clear
5:53 PM 69.8 °F 50.0 °F 49% 30.32 in 10.0 mi East 5.8 mph - N/A   Clear
6:13 PM 69.8 °F 51.8 °F 53% 30.32 in 10.0 mi Calm Calm - N/A   Clear
6:33 PM 68.0 °F 51.8 °F 56% 30.32 in 10.0 mi East 3.5 mph - N/A   Clear
6:53 PM 66.2 °F 53.6 °F 64% 30.31 in 10.0 mi East 5.8 mph - N/A   Clear
7:13 PM 64.4 °F 55.4 °F 73% 30.31 in 10.0 mi East 3.5 mph - N/A   Clear
7:54 PM 62.6 °F 57.2 °F 82% 30.31 in 10.0 mi East 3.5 mph - N/A   Clear
8:14 PM 62.6 °F 55.4 °F 77% 30.31 in 10.0 mi East 3.5 mph - N/A   Clear
8:34 PM 62.6 °F 55.4 °F 77% 30.30 in 10.0 mi Calm Calm - N/A   Clear
9:14 PM 60.8 °F 57.2 °F 88% 30.30 in 10.0 mi East 3.5 mph - N/A   Clear
9:34 PM 60.8 °F 57.2 °F 88% 30.30 in 10.0 mi ESE 3.5 mph - N/A   Clear
9:54 PM 62.6 °F 57.2 °F 82% 30.31 in 10.0 mi ESE 3.5 mph - N/A   Clear
10:15 PM 60.8 °F 57.2 °F 88% 30.31 in 10.0 mi East 3.5 mph - N/A   Clear
10:35 PM 60.8 °F 57.2 °F 88% 30.31 in 10.0 mi Calm Calm - N/A   Clear
11:15 PM 57.2 °F 57.2 °F 100% 30.31 in 7.0 mi Calm Calm - N/A   Clear
11:35 PM 57.2 °F 57.2 °F 100% 30.31 in 10.0 mi Calm Calm - N/A   Clear